Year,Month,Day,Hour,Minute,Value (Times are PST for temperature in C)
2013,07,17,09,13,17.90
2013,07,17,09,14,18.00
2013,07,17,09,15,18.10
2013,07,17,09,16,18.20
2013,07,17,09,17,18.20
2013,07,17,09,18,18.20
2013,07,17,09,19,18.20
2013,07,17,09,20,18.20
2013,07,17,09,21,18.20
2013,07,17,09,22,18.20
2013,07,17,09,23,18.20
2013,07,17,09,24,18.20
2013,07,17,09,25,18.20
2013,07,17,09,26,18.20
2013,07,17,09,27,18.10
2013,07,17,09,28,18.00
2013,07,17,09,29,17.90
2013,07,17,09,30,17.90
2013,07,17,09,31,17.90
2013,07,17,09,32,17.90
2013,07,17,09,33,17.90
2013,07,17,09,34,17.80
2013,07,17,09,35,17.80
2013,07,17,09,36,17.80
2013,07,17,09,37,17.90
2013,07,17,09,38,17.90
2013,07,17,09,39,17.90
2013,07,17,09,40,17.90
2013,07,17,09,41,17.90
2013,07,17,09,42,17.90
2013,07,17,09,43,18.00
2013,07,17,09,44,18.10
2013,07,17,09,45,18.00
2013,07,17,09,46,17.90
2013,07,17,09,47,17.90
2013,07,17,09,48,17.90
2013,07,17,09,49,17.90
2013,07,17,09,50,17.90
2013,07,17,09,51,17.90
2013,07,17,09,52,17.90
2013,07,17,09,53,17.90
2013,07,17,09,54,17.90
2013,07,17,09,55,17.90
2013,07,17,09,56,17.90
2013,07,17,09,57,17.90
2013,07,17,09,58,17.90
2013,07,17,09,59,17.90
2013,07,17,10,00,17.90
2013,07,17,10,01,17.90
2013,07,17,10,02,17.90
2013,07,17,10,03,17.90
2013,07,17,10,04,17.90
2013,07,17,10,05,17.90
2013,07,17,10,06,17.90
2013,07,17,10,07,17.90
2013,07,17,10,08,17.90
2013,07,17,10,09,18.00
2013,07,17,10,10,18.10
2013,07,17,10,11,18.00
2013,07,17,10,12,18.10
2013,07,17,10,13,18.10
2013,07,17,10,14,18.10
2013,07,17,10,15,18.10
2013,07,17,10,16,18.10
2013,07,17,10,17,18.20
2013,07,17,10,18,18.20
2013,07,17,10,19,18.20
2013,07,17,10,20,18.30
2013,07,17,10,21,18.30
2013,07,17,10,22,18.30
2013,07,17,10,23,18.30
2013,07,17,10,24,18.30
2013,07,17,10,25,18.30
2013,07,17,10,26,18.30
2013,07,17,10,27,18.40
2013,07,17,10,28,18.40
2013,07,17,10,29,18.50
2013,07,17,10,30,18.50
2013,07,17,10,31,18.50
2013,07,17,10,32,18.60
2013,07,17,10,33,18.60
2013,07,17,10,34,18.60
2013,07,17,10,35,18.60
2013,07,17,10,36,18.70
2013,07,17,10,37,18.60
2013,07,17,10,38,18.60
2013,07,17,10,39,18.60
2013,07,17,10,40,18.60
2013,07,17,10,41,18.60
2013,07,17,10,42,18.60
2013,07,17,10,43,18.60
2013,07,17,10,44,18.70
2013,07,17,10,45,18.70
2013,07,17,10,46,18.80
2013,07,17,10,47,18.80
2013,07,17,10,48,18.90
2013,07,17,10,49,18.80
2013,07,17,10,50,18.80
2013,07,17,10,51,18.80
2013,07,17,10,52,18.90
2013,07,17,10,53,18.90
2013,07,17,10,54,18.90
2013,07,17,10,55,18.90
2013,07,17,10,56,18.80
2013,07,17,10,57,18.90
2013,07,17,10,58,18.90
2013,07,17,10,59,18.90
2013,07,17,11,00,18.90
2013,07,17,11,01,18.90
2013,07,17,11,02,18.90
2013,07,17,11,03,18.90
2013,07,17,11,04,18.90
2013,07,17,11,05,18.90
2013,07,17,11,06,18.90
2013,07,17,11,07,18.90
2013,07,17,11,08,18.90
2013,07,17,11,09,18.90
2013,07,17,11,10,18.90
2013,07,17,11,11,18.90
2013,07,17,11,12,18.90
2013,07,17,11,13,18.90
2013,07,17,11,14,18.90
2013,07,17,11,15,18.80
2013,07,17,11,16,18.80
2013,07,17,11,17,18.90
2013,07,17,11,18,18.80
2013,07,17,11,19,18.80
2013,07,17,11,20,18.80
2013,07,17,11,21,18.80
2013,07,17,11,22,18.70
2013,07,17,11,23,18.60
2013,07,17,11,24,18.60
2013,07,17,11,25,18.50
2013,07,17,11,26,18.50
2013,07,17,11,27,18.40
2013,07,17,11,28,18.40
2013,07,17,11,29,18.40
2013,07,17,11,30,18.40
2013,07,17,11,31,18.40
2013,07,17,11,32,18.40
2013,07,17,11,33,18.40
2013,07,17,11,34,18.30
2013,07,17,11,35,18.30
2013,07,17,11,36,18.30
2013,07,17,11,37,18.30
2013,07,17,11,38,18.30
2013,07,17,11,39,18.30
2013,07,17,11,40,18.30
2013,07,17,11,41,18.30
2013,07,17,11,42,18.20
2013,07,17,11,43,18.30
2013,07,17,11,44,18.40
2013,07,17,11,45,18.50
2013,07,17,11,46,18.60
2013,07,17,11,47,18.60
2013,07,17,11,48,18.70
2013,07,17,11,49,18.80
2013,07,17,11,50,18.80
2013,07,17,11,51,18.90
2013,07,17,11,52,18.90
2013,07,17,11,53,18.90
2013,07,17,11,54,19.00
2013,07,17,11,55,19.10
2013,07,17,11,56,19.20
2013,07,17,11,57,19.30
2013,07,17,11,58,19.40
2013,07,17,11,59,19.50
2013,07,17,12,00,19.40
2013,07,17,12,01,19.50
2013,07,17,12,02,19.50
2013,07,17,12,03,19.50
2013,07,17,12,04,19.50
2013,07,17,12,05,19.50
2013,07,17,12,06,19.50
2013,07,17,12,07,19.60
2013,07,17,12,08,19.80
2013,07,17,12,09,19.90
2013,07,17,12,10,20.00
2013,07,17,12,11,20.10
2013,07,17,12,12,20.10
2013,07,17,12,13,19.90
2013,07,17,12,14,19.90
2013,07,17,12,15,19.90
2013,07,17,12,16,19.90
2013,07,17,12,17,19.90
2013,07,17,12,18,19.90
2013,07,17,12,19,19.90
2013,07,17,12,20,19.90
2013,07,17,12,21,19.90
2013,07,17,12,22,19.90
2013,07,17,12,23,19.90
2013,07,17,12,24,19.80
2013,07,17,12,25,19.80
2013,07,17,12,26,19.70
2013,07,17,12,27,19.70
2013,07,17,12,28,19.70
2013,07,17,12,29,19.70
2013,07,17,12,30,19.70
2013,07,17,12,31,19.70
2013,07,17,12,32,19.80
2013,07,17,12,33,19.80
2013,07,17,12,34,19.80
2013,07,17,12,35,19.90
2013,07,17,12,36,19.90
2013,07,17,12,37,19.90
2013,07,17,12,38,19.90
2013,07,17,12,39,20.00
2013,07,17,12,40,20.10
2013,07,17,12,41,20.10
2013,07,17,12,42,20.20
2013,07,17,12,43,20.30
2013,07,17,12,44,20.40
2013,07,17,12,45,20.50
2013,07,17,12,46,20.50
2013,07,17,12,47,20.50
2013,07,17,12,48,20.50
2013,07,17,12,49,20.60
2013,07,17,12,50,20.60
2013,07,17,12,51,20.70
2013,07,17,12,52,20.60
2013,07,17,12,53,20.70
2013,07,17,12,54,20.70
2013,07,17,12,55,20.70
2013,07,17,12,56,20.70
2013,07,17,12,57,20.80
2013,07,17,12,58,20.90
2013,07,17,12,59,20.90
2013,07,17,13,00,21.00
2013,07,17,13,01,21.10
2013,07,17,13,02,21.10
2013,07,17,13,03,21.10
2013,07,17,13,04,21.10
2013,07,17,13,05,21.10
2013,07,17,13,06,21.20
2013,07,17,13,07,21.20
2013,07,17,13,08,21.20
2013,07,17,13,09,21.30
2013,07,17,13,10,21.30
2013,07,17,13,11,21.40
2013,07,17,13,12,21.50
2013,07,17,13,13,21.60
2013,07,17,13,14,21.60
2013,07,17,13,15,21.60
2013,07,17,13,16,21.50
2013,07,17,13,17,21.30
2013,07,17,13,18,21.30
2013,07,17,13,19,21.30
2013,07,17,13,20,21.40
2013,07,17,13,21,21.50
2013,07,17,13,22,21.60
2013,07,17,13,23,21.60
2013,07,17,13,24,21.50
2013,07,17,13,25,21.40
2013,07,17,13,26,21.40
2013,07,17,13,27,21.40
2013,07,17,13,28,21.40
2013,07,17,13,29,21.50
2013,07,17,13,30,21.60
2013,07,17,13,31,21.60
2013,07,17,13,32,21.60
2013,07,17,13,33,21.50
2013,07,17,13,34,21.40
2013,07,17,13,35,21.30
2013,07,17,13,36,21.30
2013,07,17,13,37,21.50
2013,07,17,13,38,21.60
2013,07,17,13,39,21.50
2013,07,17,13,40,21.40
2013,07,17,13,41,21.40
2013,07,17,13,42,21.40
2013,07,17,13,43,21.40
2013,07,17,13,44,21.50
2013,07,17,13,45,21.70
2013,07,17,13,46,21.70
2013,07,17,13,47,21.70
2013,07,17,13,48,21.70
2013,07,17,13,49,21.80
2013,07,17,13,50,21.80
2013,07,17,13,51,21.80
2013,07,17,13,52,21.80
2013,07,17,13,53,21.80
2013,07,17,13,54,21.70
2013,07,17,13,55,21.60
2013,07,17,13,56,21.40
2013,07,17,13,57,21.30
2013,07,17,13,58,21.30
2013,07,17,13,59,21.30
2013,07,17,14,00,21.50
2013,07,17,14,01,21.60
2013,07,17,14,02,21.50
2013,07,17,14,03,21.40
2013,07,17,14,04,21.40
2013,07,17,14,05,21.50
2013,07,17,14,06,21.60
2013,07,17,14,07,21.60
2013,07,17,14,08,21.60
2013,07,17,14,09,21.50
2013,07,17,14,10,21.50
2013,07,17,14,11,21.60
2013,07,17,14,12,21.70
2013,07,17,14,13,21.70
2013,07,17,14,14,21.80
2013,07,17,14,15,21.70
2013,07,17,14,16,21.70
2013,07,17,14,17,21.70
2013,07,17,14,18,21.70
2013,07,17,14,19,21.80
2013,07,17,14,20,21.80
2013,07,17,14,21,21.80
2013,07,17,14,22,21.90
2013,07,17,14,23,22.00
2013,07,17,14,24,22.10
2013,07,17,14,25,22.10
2013,07,17,14,26,22.10
2013,07,17,14,27,22.00
2013,07,17,14,28,22.10
2013,07,17,14,29,22.10
2013,07,17,14,30,22.00
2013,07,17,14,31,21.80
2013,07,17,14,32,21.80
2013,07,17,14,33,21.90
2013,07,17,14,34,22.00
2013,07,17,14,35,22.00
2013,07,17,14,36,22.00
2013,07,17,14,37,22.00
2013,07,17,14,38,21.90
2013,07,17,14,39,21.80
2013,07,17,14,40,21.80
2013,07,17,14,41,21.80
2013,07,17,14,42,21.70
2013,07,17,14,43,21.70
2013,07,17,14,44,21.80
2013,07,17,14,45,21.80
2013,07,17,14,46,21.90
2013,07,17,14,47,22.00
2013,07,17,14,48,22.00
2013,07,17,14,49,22.10
2013,07,17,14,50,22.10
2013,07,17,14,51,22.20
2013,07,17,14,52,22.20
2013,07,17,14,53,22.20
2013,07,17,14,54,22.20
2013,07,17,14,55,22.10
2013,07,17,14,56,22.00
2013,07,17,14,57,21.90
2013,07,17,14,58,21.70
2013,07,17,14,59,21.70
2013,07,17,15,00,21.70
2013,07,17,15,01,21.70
2013,07,17,15,02,21.70
2013,07,17,15,03,21.80
2013,07,17,15,04,22.00
2013,07,17,15,05,22.00
2013,07,17,15,06,22.10
2013,07,17,15,07,22.20
2013,07,17,15,08,22.10
2013,07,17,15,09,22.10
2013,07,17,15,10,22.00
2013,07,17,15,11,21.90
2013,07,17,15,12,21.80
2013,07,17,15,13,21.80
2013,07,17,15,14,21.80
2013,07,17,15,15,21.90
2013,07,17,15,16,21.90
2013,07,17,15,17,21.90
2013,07,17,15,18,21.90
2013,07,17,15,19,21.80
2013,07,17,15,20,21.80
2013,07,17,15,21,21.80
2013,07,17,15,22,21.80
2013,07,17,15,23,21.80
2013,07,17,15,24,21.90
2013,07,17,15,25,22.10
2013,07,17,15,26,22.10
2013,07,17,15,27,22.00
2013,07,17,15,28,22.00
2013,07,17,15,29,22.00
2013,07,17,15,30,21.90
2013,07,17,15,31,21.90
2013,07,17,15,32,21.90
2013,07,17,15,33,21.90
2013,07,17,15,34,21.90
2013,07,17,15,35,21.90
2013,07,17,15,36,22.00
2013,07,17,15,37,22.00
2013,07,17,15,38,22.10
2013,07,17,15,39,22.10
2013,07,17,15,40,22.10
2013,07,17,15,41,22.10
2013,07,17,15,42,22.10
2013,07,17,15,43,22.10
2013,07,17,15,44,22.00
2013,07,17,15,45,22.00
2013,07,17,15,46,21.90
2013,07,17,15,47,21.80
2013,07,17,15,48,21.70
2013,07,17,15,49,21.70
2013,07,17,15,50,21.70
2013,07,17,15,51,21.60
2013,07,17,15,52,21.60
2013,07,17,15,53,21.60
2013,07,17,15,54,21.60
2013,07,17,15,55,21.60
2013,07,17,15,56,21.60
2013,07,17,15,57,21.60
2013,07,17,15,58,21.70
2013,07,17,15,59,21.60
2013,07,17,16,00,21.60
2013,07,17,16,01,21.60
2013,07,17,16,02,21.50
2013,07,17,16,03,21.40
2013,07,17,16,04,21.40
2013,07,17,16,05,21.40
2013,07,17,16,06,21.40
2013,07,17,16,07,21.50
2013,07,17,16,08,21.60
2013,07,17,16,09,21.60
2013,07,17,16,10,21.60
2013,07,17,16,11,21.60
2013,07,17,16,12,21.60
2013,07,17,16,13,21.60
2013,07,17,16,14,21.70
2013,07,17,16,15,21.70
2013,07,17,16,16,21.60
2013,07,17,16,17,21.60
2013,07,17,16,18,21.60
2013,07,17,16,19,21.60
2013,07,17,16,20,21.60
2013,07,17,16,21,21.60
2013,07,17,16,22,21.50
2013,07,17,16,23,21.40
2013,07,17,16,24,21.40
2013,07,17,16,25,21.40
2013,07,17,16,26,21.40
2013,07,17,16,27,21.50
2013,07,17,16,28,21.60
2013,07,17,16,29,21.60
2013,07,17,16,30,21.60
2013,07,17,16,31,21.60
2013,07,17,16,32,21.60
2013,07,17,16,33,21.60
2013,07,17,16,34,21.60
2013,07,17,16,35,21.50
2013,07,17,16,36,21.50
2013,07,17,16,37,21.60
2013,07,17,16,38,21.60
2013,07,17,16,39,21.60
2013,07,17,16,40,21.60
2013,07,17,16,41,21.60
2013,07,17,16,42,21.60
2013,07,17,16,43,21.60
2013,07,17,16,44,21.60
2013,07,17,16,45,21.60
2013,07,17,16,46,21.60
2013,07,17,16,47,21.60
2013,07,17,16,48,21.60
2013,07,17,16,49,21.60
2013,07,17,16,50,21.60
2013,07,17,16,51,21.60
2013,07,17,16,52,21.60
2013,07,17,16,53,21.60
2013,07,17,16,54,21.60
2013,07,17,16,55,21.60
2013,07,17,16,56,21.60
2013,07,17,16,57,21.60
2013,07,17,16,58,21.60
2013,07,17,16,59,21.60
2013,07,17,17,00,21.60
2013,07,17,17,01,21.60
2013,07,17,17,02,21.60
2013,07,17,17,03,21.60
2013,07,17,17,04,21.60
2013,07,17,17,05,21.60
2013,07,17,17,06,21.60
2013,07,17,17,07,21.60
2013,07,17,17,08,21.60
2013,07,17,17,09,21.50
2013,07,17,17,10,21.40
2013,07,17,17,11,21.40
2013,07,17,17,12,21.40
2013,07,17,17,13,21.40
2013,07,17,17,14,21.40
2013,07,17,17,15,21.30
2013,07,17,17,16,21.40
2013,07,17,17,17,21.40
2013,07,17,17,18,21.30
2013,07,17,17,19,21.30
2013,07,17,17,20,21.30
2013,07,17,17,21,21.30
2013,07,17,17,22,21.30
2013,07,17,17,23,21.30
2013,07,17,17,24,21.30
2013,07,17,17,25,21.30
2013,07,17,17,26,21.30
2013,07,17,17,27,21.30
2013,07,17,17,28,21.30
2013,07,17,17,29,21.30
2013,07,17,17,30,21.30
2013,07,17,17,31,21.30
2013,07,17,17,32,21.30
2013,07,17,17,33,21.40
2013,07,17,17,34,21.50
2013,07,17,17,35,21.60
2013,07,17,17,36,21.60
2013,07,17,17,37,21.60
2013,07,17,17,38,21.50
2013,07,17,17,39,21.40
2013,07,17,17,40,21.40
2013,07,17,17,41,21.50
2013,07,17,17,42,21.50
2013,07,17,17,43,21.40
2013,07,17,17,44,21.40
2013,07,17,17,45,21.40
2013,07,17,17,46,21.40
2013,07,17,17,47,21.30
2013,07,17,17,48,21.30
2013,07,17,17,49,21.30
2013,07,17,17,50,21.30
2013,07,17,17,51,21.30
2013,07,17,17,52,21.40
2013,07,17,17,53,21.40
2013,07,17,17,54,21.40
2013,07,17,17,55,21.40
2013,07,17,17,56,21.40
2013,07,17,17,57,21.40
2013,07,17,17,58,21.40
2013,07,17,17,59,21.50
2013,07,17,18,00,21.60
2013,07,17,18,01,21.50
2013,07,17,18,02,21.60
2013,07,17,18,03,21.60
2013,07,17,18,04,21.60
2013,07,17,18,05,21.60
2013,07,17,18,06,21.60
2013,07,17,18,07,21.70
2013,07,17,18,08,21.80
2013,07,17,18,09,21.70
2013,07,17,18,10,21.80
2013,07,17,18,11,21.90
2013,07,17,18,12,21.90
2013,07,17,18,13,21.90
2013,07,17,18,14,21.90
2013,07,17,18,15,21.90
2013,07,17,18,16,22.00
2013,07,17,18,17,22.00
2013,07,17,18,18,22.00
2013,07,17,18,19,22.00
2013,07,17,18,20,22.00
2013,07,17,18,21,21.90
2013,07,17,18,22,21.90
2013,07,17,18,23,21.90
2013,07,17,18,24,21.90
2013,07,17,18,25,21.90
2013,07,17,18,26,21.80
2013,07,17,18,27,21.70
2013,07,17,18,28,21.70
2013,07,17,18,29,21.60
2013,07,17,18,30,21.60
2013,07,17,18,31,21.60
2013,07,17,18,32,21.60
2013,07,17,18,33,21.50
2013,07,17,18,34,21.40
2013,07,17,18,35,21.40
2013,07,17,18,36,21.30
2013,07,17,18,37,21.30
2013,07,17,18,38,21.30
2013,07,17,18,39,21.30
2013,07,17,18,40,21.30
2013,07,17,18,41,21.30
2013,07,17,18,42,21.30
2013,07,17,18,43,21.40
2013,07,17,18,44,21.40
2013,07,17,18,45,21.60
2013,07,17,18,46,21.60
2013,07,17,18,47,21.60
2013,07,17,18,48,21.50
2013,07,17,18,49,21.40
2013,07,17,18,50,21.40
2013,07,17,18,51,21.40
2013,07,17,18,52,21.30
2013,07,17,18,53,21.30
2013,07,17,18,54,21.30
2013,07,17,18,55,21.20
2013,07,17,18,56,21.10
2013,07,17,18,57,21.10
2013,07,17,18,58,21.10
2013,07,17,18,59,21.00
2013,07,17,19,00,21.00
2013,07,17,19,01,20.90
2013,07,17,19,02,20.90
2013,07,17,19,03,20.90
2013,07,17,19,04,20.90
2013,07,17,19,05,20.90
2013,07,17,19,06,20.80
2013,07,17,19,07,20.70
2013,07,17,19,08,20.60
2013,07,17,19,09,20.50
2013,07,17,19,10,20.50
2013,07,17,19,11,20.40
2013,07,17,19,12,20.40
2013,07,17,19,13,20.30
2013,07,17,19,14,20.30
2013,07,17,19,15,20.20
2013,07,17,19,16,20.20
2013,07,17,19,17,20.10
2013,07,17,19,18,20.10
2013,07,17,19,19,20.10
2013,07,17,19,20,20.00
2013,07,17,19,21,19.90
2013,07,17,19,22,19.90
2013,07,17,19,23,19.90
2013,07,17,19,24,19.90
2013,07,17,19,25,19.90
2013,07,17,19,26,19.80
2013,07,17,19,27,19.80
2013,07,17,19,28,19.80
2013,07,17,19,29,19.80
2013,07,17,19,30,19.70
2013,07,17,19,31,19.70
2013,07,17,19,32,19.60
2013,07,17,19,33,19.60
2013,07,17,19,34,19.60
2013,07,17,19,35,19.50
2013,07,17,19,36,19.50
2013,07,17,19,37,19.50
2013,07,17,19,38,19.40
2013,07,17,19,39,19.40
2013,07,17,19,40,19.30
2013,07,17,19,41,19.30
2013,07,17,19,42,19.30
2013,07,17,19,43,19.30
2013,07,17,19,44,19.30
2013,07,17,19,45,19.20
2013,07,17,19,46,19.10
2013,07,17,19,47,19.10
2013,07,17,19,48,19.10
2013,07,17,19,49,19.10
2013,07,17,19,50,19.10
2013,07,17,19,51,19.10
2013,07,17,19,52,19.00
2013,07,17,19,53,18.90
2013,07,17,19,54,18.90
2013,07,17,19,55,18.90
2013,07,17,19,56,18.90
2013,07,17,19,57,18.90
2013,07,17,19,58,18.80
2013,07,17,19,59,18.80
2013,07,17,20,00,18.80
2013,07,17,20,01,18.70
2013,07,17,20,02,18.70
2013,07,17,20,03,18.70
2013,07,17,20,04,18.60
2013,07,17,20,05,18.60
2013,07,17,20,06,18.60
2013,07,17,20,07,18.50
2013,07,17,20,08,18.50
2013,07,17,20,09,18.50
2013,07,17,20,10,18.40
2013,07,17,20,11,18.40
2013,07,17,20,12,18.40
2013,07,17,20,13,18.30
2013,07,17,20,14,18.30
2013,07,17,20,15,18.30
2013,07,17,20,16,18.20
2013,07,17,20,17,18.20
2013,07,17,20,18,18.20
2013,07,17,20,19,18.20
2013,07,17,20,20,18.20
2013,07,17,20,21,18.20
2013,07,17,20,22,18.10
2013,07,17,20,23,18.10
2013,07,17,20,24,18.10
2013,07,17,20,25,18.10
2013,07,17,20,26,18.10
2013,07,17,20,27,18.00
2013,07,17,20,28,17.90
2013,07,17,20,29,17.90
2013,07,17,20,30,17.90
2013,07,17,20,31,17.90
2013,07,17,20,32,17.90
2013,07,17,20,33,17.90
2013,07,17,20,34,17.90
2013,07,17,20,35,17.90
2013,07,17,20,36,17.90
2013,07,17,20,37,17.90
2013,07,17,20,38,17.90
2013,07,17,20,39,17.90
2013,07,17,20,40,17.90
